,,Stat1,,Stat2,,Stat3,,Stat4,,Wind1,,Wind1,
time,status,PR1M_SUM,status,RH1M_AVG,status,SR1M_AVG,status,TA1M_AVG,status,W1dAve1m,status,W1sAve1m,
2000-02-14, 00:00:00,VALID,0,VALID,99.2856,VALID,0.0679233,VALID,18.9506,VALID,181,VALID,1.14545,
2000-02-14, 00:01:00,VALID,0,VALID,99.3085,VALID,0.101885,VALID,18.9501,VALID,180,VALID,1.25845,
2000-02-14, 00:02:00,VALID,0,VALID,99.3466,VALID,0.101885,VALID,18.9541,VALID,174,VALID,1.10777,
2000-02-14, 00:03:00,VALID,0,VALID,99.3568,VALID,0.0849042,VALID,18.9573,VALID,165,VALID,1.07052,
2000-02-14, 00:04:00,VALID,0,VALID,99.2856,VALID,0.0849042,VALID,18.9119,VALID,159,VALID,0.882622,
2000-02-14, 00:05:00,VALID,0,VALID,99.2818,VALID,0.101885,VALID,18.8826,VALID,148,VALID,0.799414,
2000-02-14, 00:06:00,VALID,0,VALID,99.2843,VALID,0.0849042,VALID,18.8597,VALID,149,VALID,0.925576,
2000-02-14, 00:07:00,VALID,0,VALID,99.3746,VALID,0.101885,VALID,18.8599,VALID,166,VALID,0.758789,
2000-02-14, 00:08:00,VALID,0,VALID,99.353,VALID,0.0849042,VALID,18.8634,VALID,171,VALID,1.20374,
2000-02-14, 00:09:00,VALID,0,VALID,99.3708,VALID,0.101885,VALID,18.8339,VALID,156,VALID,1.33995,
2000-02-14, 00:10:00,VALID,0,VALID,99.3899,VALID,0.101885,VALID,18.8145,VALID,168,VALID,1.1258,
2000-02-14, 00:11:00,VALID,0,VALID,99.4891,VALID,0.0509425,VALID,18.8376,VALID,180,VALID,1.16765,
2000-02-14, 00:12:00,VALID,0,VALID,99.5577,VALID,0.0849042,VALID,18.8855,VALID,185,VALID,1.25041,
2000-02-14, 00:13:00,VALID,0,VALID,99.5031,VALID,0.0509425,VALID,18.886,VALID,189,VALID,0.859581,
2000-02-14, 00:14:00,VALID,0,VALID,99.5056,VALID,0,VALID,18.9038,VALID,171,VALID,1.04922,
2000-02-14, 00:15:00,VALID,0,VALID,99.456,VALID,-0.0169808,VALID,18.8805,VALID,156,VALID,1.10423,
2000-02-14, 00:16:01,VALID,0,VALID,99.2843,VALID,-0.0169808,VALID,18.7938,VALID,134,VALID,1.14688,
2000-02-14, 00:17:00,VALID,0,VALID,99.2958,VALID,0,VALID,18.7749,VALID,132,VALID,1.17356,
2000-02-14, 00:18:00,VALID,0,VALID,99.3403,VALID,0,VALID,18.7774,VALID,136,VALID,1.14383,
2000-02-14, 00:19:00,VALID,0,VALID,99.4191,VALID,0,VALID,18.8295,VALID,138,VALID,1.36719,
2000-02-14, 00:20:00,VALID,0,VALID,99.4776,VALID,-0.0339617,VALID,18.8745,VALID,151,VALID,1.30703,
2000-02-14, 00:21:00,VALID,0,VALID,99.5043,VALID,-0.0169808,VALID,18.9197,VALID,164,VALID,1.10482,
2000-02-14, 00:22:00,VALID,0,VALID,99.3937,VALID,0,VALID,18.9391,VALID,176,VALID,1.03906,
2000-02-14, 00:23:00,VALID,0,VALID,99.3174,VALID,0,VALID,18.9456,VALID,188,VALID,0.885352,
2000-02-14, 00:24:00,VALID,0,VALID,99.2424,VALID,-0.0509425,VALID,18.962,VALID,198,VALID,0.736637,
2000-02-14, 00:25:00,VALID,0,VALID,99.1406,VALID,-0.0339617,VALID,18.9493,VALID,206,VALID,0.868189,
2000-02-14, 00:26:00,VALID,0,VALID,99.1406,VALID,-0.0169808,VALID,18.9684,VALID,202,VALID,0.952324,
2000-02-14, 00:27:01,VALID,0,VALID,99.1496,VALID,-0.0169808,VALID,19.0005,VALID,197,VALID,0.886133,
2000-02-14, 00:28:00,VALID,0,VALID,98.9525,VALID,0.0169808,VALID,18.9973,VALID,191,VALID,0.598575,
2000-02-14, 00:29:00,VALID,0,VALID,98.8545,VALID,-0.0339617,VALID,18.9709,VALID,190,VALID,0.583265,
2000-02-14, 00:30:00,VALID,0,VALID,98.81,VALID,-0.0339617,VALID,19.0003,VALID,196,VALID,0.538352,
2000-02-14, 00:31:00,VALID,0,VALID,98.7337,VALID,0,VALID,18.9843,VALID,206,VALID,0.600718,
2000-02-14, 00:32:00,VALID,0,VALID,98.6727,VALID,0,VALID,18.9749,VALID,227,VALID,0.739865,
2000-02-14, 00:33:00,VALID,0,VALID,98.6854,VALID,0,VALID,18.9781,VALID,237,VALID,0.89147,
2000-02-14, 00:34:00,VALID,0,VALID,98.6511,VALID,-0.0169808,VALID,18.9677,VALID,234,VALID,1.01422,
2000-02-14, 00:35:00,VALID,0,VALID,98.6002,VALID,-0.0169808,VALID,18.9518,VALID,238,VALID,0.833116,
2000-02-14, 00:36:00,VALID,0,VALID,98.5786,VALID,0,VALID,18.9225,VALID,236,VALID,0.856908,
2000-02-14, 00:37:00,VALID,0,VALID,98.6485,VALID,0,VALID,18.9098,VALID,222,VALID,0.852385,
2000-02-14, 00:38:01,VALID,0,VALID,98.693,VALID,0,VALID,18.8999,VALID,220,VALID,0.958594,
2000-02-14, 00:39:00,VALID,0,VALID,98.7197,VALID,0,VALID,18.8798,VALID,205,VALID,1.09745,
2000-02-14, 00:40:00,VALID,0,VALID,98.8316,VALID,0,VALID,18.9163,VALID,180,VALID,1.00381,
2000-02-14, 00:41:00,VALID,0,VALID,98.7579,VALID,0,VALID,18.9063,VALID,158,VALID,1.04629,
2000-02-14, 00:42:00,VALID,0,VALID,98.6969,VALID,0,VALID,18.9168,VALID,157,VALID,1.03783,
2000-02-14, 00:43:00,VALID,0,VALID,98.5951,VALID,-0.0169808,VALID,18.8937,VALID,157,VALID,1.05703,
2000-02-14, 00:44:00,VALID,0,VALID,98.5735,VALID,-0.0169808,VALID,18.9001,VALID,155,VALID,1.09149,
2000-02-14, 00:45:00,VALID,0,VALID,98.4044,VALID,-0.0169808,VALID,18.9294,VALID,159,VALID,1.00655,
2000-02-14, 00:46:00,VALID,0,VALID,98.0789,VALID,0,VALID,18.9135,VALID,148,VALID,0.986779,
2000-02-14, 00:47:00,VALID,0,VALID,97.6033,VALID,0,VALID,18.8778,VALID,125,VALID,0.8731,
2000-02-14, 00:48:00,VALID,0,VALID,97.2803,VALID,-0.0169808,VALID,18.8189,VALID,116,VALID,0.585526,
2000-02-14, 00:49:01,VALID,0,VALID,97.3134,VALID,0,VALID,18.7869,VALID,103,VALID,0.207031,
2000-02-14, 00:50:00,VALID,0,VALID,97.4774,VALID,0,VALID,18.7647,VALID,70,VALID,0,
2000-02-14, 00:51:00,VALID,0,VALID,97.8233,VALID,0,VALID,18.7809,VALID,47,VALID,0,
2000-02-14, 00:52:00,VALID,0,VALID,97.9822,VALID,0,VALID,18.7903,VALID,70,VALID,0,
2000-02-14, 00:53:00,VALID,0,VALID,98.042,VALID,-0.0169808,VALID,18.8069,VALID,84,VALID,0,
2000-02-14, 00:54:00,VALID,0,VALID,98.0064,VALID,-0.0169808,VALID,18.8032,VALID,104,VALID,0,
2000-02-14, 00:55:00,VALID,0,VALID,97.9517,VALID,-0.0169808,VALID,18.8102,VALID,115,VALID,0,
2000-02-14, 00:56:00,VALID,0,VALID,97.9008,VALID,-0.0169808,VALID,18.8102,VALID,115,VALID,0,
2000-02-14, 00:57:00,VALID,0,VALID,97.8156,VALID,-0.0169808,VALID,18.7811,VALID,114,VALID,0,
2000-02-14, 00:58:00,VALID,0,VALID,97.6402,VALID,-0.0339617,VALID,18.752,VALID,111,VALID,0,
2000-02-14, 00:59:00,VALID,0,VALID,97.6198,VALID,0,VALID,18.7356,VALID,110,VALID,0,
2000-02-14, 01:00:01,VALID,0,VALID,97.6313,VALID,-0.0169808,VALID,18.723,VALID,106,VALID,0,
2000-02-14, 01:01:00,VALID,0,VALID,97.8462,VALID,0,VALID,18.726,VALID,104,VALID,0,
2000-02-14, 01:02:00,VALID,0,VALID,98.0127,VALID,0,VALID,18.7294,VALID,110,VALID,0,
2000-02-14, 01:03:00,VALID,0,VALID,98.1272,VALID,-0.0169808,VALID,18.7163,VALID,126,VALID,0,
2000-02-14, 01:04:00,VALID,0,VALID,98.3446,VALID,-0.0169808,VALID,18.7359,VALID,131,VALID,0,
2000-02-14, 01:05:00,VALID,0,VALID,98.468,VALID,0,VALID,18.7386,VALID,149,VALID,0,
2000-02-14, 01:06:00,VALID,0,VALID,98.5824,VALID,-0.0169808,VALID,18.7458,VALID,154,VALID,0,
2000-02-14, 01:07:00,VALID,0,VALID,98.6625,VALID,-0.0169808,VALID,18.7456,VALID,154,VALID,0,
2000-02-14, 01:08:00,VALID,0,VALID,98.4909,VALID,0,VALID,18.6874,VALID,155,VALID,0,
2000-02-14, 01:09:00,VALID,0,VALID,98.6613,VALID,-0.0169808,VALID,18.6713,VALID,162,VALID,0,
2000-02-14, 01:10:00,VALID,0,VALID,98.913,VALID,0,VALID,18.7031,VALID,183,VALID,0.000200321,
2000-02-14, 01:11:00,VALID,0,VALID,98.8952,VALID,0,VALID,18.7294,VALID,203,VALID,0.826606,
2000-02-14, 01:12:00,VALID,0,VALID,98.8558,VALID,0,VALID,18.7123,VALID,212,VALID,1.15933,
2000-02-14, 01:13:00,VALID,0,VALID,98.899,VALID,0,VALID,18.7449,VALID,204,VALID,1.13199,
2000-02-14, 01:14:00,VALID,0,VALID,98.6943,VALID,-0.0169808,VALID,18.7615,VALID,222,VALID,0.988867,
2000-02-14, 01:15:00,VALID,0,VALID,98.4959,VALID,-0.0169808,VALID,18.7416,VALID,219,VALID,1.0699,
2000-02-14, 01:16:00,VALID,0,VALID,98.5112,VALID,-0.0169808,VALID,18.7839,VALID,212,VALID,1.09699,
2000-02-14, 01:17:00,VALID,0,VALID,98.379,VALID,0,VALID,18.8129,VALID,208,VALID,0.831641,
2000-02-14, 01:18:00,VALID,0,VALID,98.2747,VALID,0,VALID,18.8452,VALID,207,VALID,0.535156,
2000-02-14, 01:19:00,VALID,0,VALID,98.1234,VALID,-0.0169808,VALID,18.8618,VALID,227,VALID,0.588867,
2000-02-14, 01:20:00,VALID,0,VALID,98.0178,VALID,0,VALID,18.8877,VALID,235,VALID,0.58162,
2000-02-14, 01:21:00,VALID,0,VALID,97.8894,VALID,0,VALID,18.8969,VALID,228,VALID,0.551098,
2000-02-14, 01:22:00,VALID,0,VALID,97.7622,VALID,-0.0339617,VALID,18.9001,VALID,224,VALID,0.373598,
2000-02-14, 01:23:00,VALID,0,VALID,97.6732,VALID,0,VALID,18.8969,VALID,224,VALID,0.0834037,
2000-02-14, 01:24:00,VALID,0,VALID,97.5956,VALID,0.0169808,VALID,18.9034,VALID,232,VALID,0.0516036,
2000-02-14, 01:25:00,VALID,0,VALID,97.4253,VALID,0,VALID,18.8904,VALID,273,VALID,0.291118,
2000-02-14, 01:26:00,VALID,0,VALID,97.4214,VALID,0,VALID,18.8842,VALID,341,VALID,0.108008,
2000-02-14, 01:27:00,VALID,0,VALID,97.3006,VALID,0.0169808,VALID,18.8477,VALID,347,VALID,0.00114329,
2000-02-14, 01:28:00,VALID,0,VALID,97.2282,VALID,0,VALID,18.8321,VALID,348,VALID,0,
2000-02-14, 01:29:00,VALID,0,VALID,97.4265,VALID,0,VALID,18.8293,VALID,348,VALID,0,
2000-02-14, 01:30:00,VALID,0,VALID,97.6592,VALID,0,VALID,18.836,VALID,335,VALID,0,
2000-02-14, 01:31:00,VALID,0,VALID,97.7699,VALID,0,VALID,18.8422,VALID,314,VALID,0,
2000-02-14, 01:32:00,VALID,0,VALID,97.8042,VALID,-0.0169808,VALID,18.8459,VALID,314,VALID,0,
2000-02-14, 01:33:00,VALID,0,VALID,97.7762,VALID,0,VALID,18.8392,VALID,302,VALID,0,
2000-02-14, 01:34:00,VALID,0,VALID,97.7393,VALID,-0.0169808,VALID,18.8196,VALID,301,VALID,0,
2000-02-14, 01:35:00,VALID,0,VALID,97.6173,VALID,0,VALID,18.8002,VALID,301,VALID,0,
2000-02-14, 01:36:00,VALID,0,VALID,97.0438,VALID,0,VALID,18.7359,VALID,301,VALID,0,
2000-02-14, 01:37:00,VALID,0,VALID,96.5479,VALID,0,VALID,18.6711,VALID,301,VALID,0,
2000-02-14, 01:38:00,VALID,0,VALID,96.8441,VALID,0,VALID,18.642,VALID,301,VALID,0,
2000-02-14, 01:39:00,VALID,0,VALID,97.0807,VALID,-0.0509425,VALID,18.6099,VALID,301,VALID,0,
2000-02-14, 01:40:00,VALID,0,VALID,97.1658,VALID,0,VALID,18.5707,VALID,301,VALID,0,
2000-02-14, 01:41:00,VALID,0,VALID,97.3045,VALID,0,VALID,18.5613,VALID,301,VALID,0,
2000-02-14, 01:42:01,VALID,0,VALID,97.4036,VALID,0,VALID,18.5421,VALID,301,VALID,0,
2000-02-14, 01:43:00,VALID,0,VALID,97.3566,VALID,0,VALID,18.5163,VALID,301,VALID,0,
2000-02-14, 01:44:00,VALID,0,VALID,97.0145,VALID,-0.0169808,VALID,18.4452,VALID,69,VALID,0,
2000-02-14, 01:45:00,VALID,0,VALID,97.2256,VALID,-0.0509425,VALID,18.4129,VALID,87,VALID,1.05849,
2000-02-14, 01:46:00,VALID,0,VALID,97.9835,VALID,-0.0339617,VALID,18.4877,VALID,81,VALID,1.19191,
2000-02-14, 01:47:00,VALID,0,VALID,98.3395,VALID,-0.0679233,VALID,18.523,VALID,82,VALID,0.786675,
2000-02-14, 01:48:00,VALID,0,VALID,98.4731,VALID,-0.0169808,VALID,18.5421,VALID,86,VALID,0.731702,
2000-02-14, 01:49:00,VALID,0,VALID,98.4845,VALID,-0.0169808,VALID,18.5486,VALID,83,VALID,0.870683,
2000-02-14, 01:50:00,VALID,0,VALID,98.5265,VALID,-0.0679233,VALID,18.5684,VALID,90,VALID,0.804102,
2000-02-14, 01:51:00,VALID,0,VALID,98.5023,VALID,-0.0339617,VALID,18.5555,VALID,95,VALID,0.495477,
2000-02-14, 01:52:00,VALID,0,VALID,98.5544,VALID,-0.0679233,VALID,18.5555,VALID,115,VALID,0.519245,
2000-02-14, 01:53:00,VALID,0,VALID,98.632,VALID,-0.0509425,VALID,18.5779,VALID,124,VALID,0.810742,
2000-02-14, 01:54:00,VALID,0,VALID,98.618,VALID,-0.0509425,VALID,18.5841,VALID,115,VALID,0.909128,
2000-02-14, 01:55:00,VALID,0,VALID,98.557,VALID,0,VALID,18.5679,VALID,115,VALID,0.935156,
2000-02-14, 01:56:00,VALID,0,VALID,98.5989,VALID,0,VALID,18.5615,VALID,119,VALID,1.04461,
2000-02-14, 01:57:00,VALID,0,VALID,98.6498,VALID,-0.0679233,VALID,18.559,VALID,124,VALID,0.93011,
2000-02-14, 01:58:00,VALID,0,VALID,98.7261,VALID,-0.0339617,VALID,18.5652,VALID,146,VALID,0.721955,
2000-02-14, 01:59:00,VALID,0,VALID,98.8189,VALID,-0.0509425,VALID,18.5682,VALID,147,VALID,0.683699,
2000-02-14, 02:00:00,VALID,0,VALID,98.8889,VALID,-0.0339617,VALID,18.5878,VALID,146,VALID,0.755551,
2000-02-14, 02:01:00,VALID,0,VALID,98.9194,VALID,-0.0169808,VALID,18.5876,VALID,150,VALID,0.934416,
2000-02-14, 02:02:00,VALID,0,VALID,98.9982,VALID,-0.0339617,VALID,18.6007,VALID,132,VALID,1.02773,
2000-02-14, 02:03:00,VALID,0,VALID,99.0567,VALID,-0.0339617,VALID,18.597,VALID,128,VALID,0.710556,
2000-02-14, 02:04:00,VALID,0,VALID,99.0872,VALID,-0.0339617,VALID,18.6035,VALID,121,VALID,0.42207,
2000-02-14, 02:05:00,VALID,0,VALID,99.0961,VALID,-0.0849042,VALID,18.5908,VALID,104,VALID,0.460726,
2000-02-14, 02:06:00,VALID,0,VALID,99.1178,VALID,-0.0509425,VALID,18.6002,VALID,99,VALID,0.337139,
2000-02-14, 02:07:00,VALID,0,VALID,99.1661,VALID,-0.0509425,VALID,18.6102,VALID,75,VALID,0.475946,
2000-02-14, 02:08:00,VALID,0,VALID,99.1852,VALID,-0.0169808,VALID,18.6231,VALID,76,VALID,0.49668,
2000-02-14, 02:09:00,VALID,0,VALID,99.2119,VALID,-0.0509425,VALID,18.6233,VALID,76,VALID,0.622179,
2000-02-14, 02:10:00,VALID,0,VALID,99.1953,VALID,-0.0339617,VALID,18.6228,VALID,73,VALID,0.189453,
2000-02-14, 02:11:00,VALID,0,VALID,99.1839,VALID,-0.0509425,VALID,18.6169,VALID,29,VALID,0.0460938,
2000-02-14, 02:12:00,VALID,0,VALID,99.2487,VALID,-0.0509425,VALID,18.6422,VALID,20,VALID,0.858758,
2000-02-14, 02:13:00,VALID,0,VALID,99.264,VALID,-0.0509425,VALID,18.6521,VALID,36,VALID,0.56851,
2000-02-14, 02:14:00,VALID,0,VALID,99.2475,VALID,0,VALID,18.6489,VALID,65,VALID,0.693309,
2000-02-14, 02:15:00,VALID,0,VALID,99.25,VALID,-0.0169808,VALID,18.6459,VALID,53,VALID,0.703711,
2000-02-14, 02:16:00,VALID,0,VALID,99.2678,VALID,-0.0339617,VALID,18.6554,VALID,68,VALID,0.941636,
2000-02-14, 02:17:00,VALID,0,VALID,99.2729,VALID,-0.0169808,VALID,18.6452,VALID,77,VALID,1.06867,
2000-02-14, 02:18:00,VALID,0,VALID,99.2971,VALID,-0.0169808,VALID,18.6425,VALID,74,VALID,0.84304,
2000-02-14, 02:19:00,VALID,0,VALID,99.3199,VALID,-0.0339617,VALID,18.6422,VALID,98,VALID,0.675042,
2000-02-14, 02:20:00,VALID,0,VALID,99.3644,VALID,-0.0169808,VALID,18.6787,VALID,81,VALID,0.61022,
2000-02-14, 02:21:00,VALID,0,VALID,99.3619,VALID,-0.0509425,VALID,18.6688,VALID,84,VALID,0.43011,
2000-02-14, 02:22:00,VALID,0,VALID,99.3734,VALID,-0.0679233,VALID,18.6651,VALID,49,VALID,0.347756,
2000-02-14, 02:23:00,VALID,0,VALID,99.3644,VALID,-0.0339617,VALID,18.6556,VALID,328,VALID,0.297526,
2000-02-14, 02:24:00,VALID,0,VALID,99.3835,VALID,-0.0169808,VALID,18.6621,VALID,300,VALID,0.307566,
2000-02-14, 02:25:00,VALID,0,VALID,99.3823,VALID,-0.0509425,VALID,18.6621,VALID,311,VALID,0.534334,
2000-02-14, 02:26:00,VALID,0,VALID,99.3759,VALID,-0.0509425,VALID,18.6422,VALID,299,VALID,0.377148,
2000-02-14, 02:27:00,VALID,0,VALID,99.4051,VALID,-0.0849042,VALID,18.6556,VALID,297,VALID,0.0460526,
2000-02-14, 02:28:00,VALID,0,VALID,99.4446,VALID,-0.0339617,VALID,18.6748,VALID,273,VALID,0,
2000-02-14, 02:29:00,VALID,0,VALID,99.4535,VALID,0,VALID,18.6745,VALID,270,VALID,0,
2000-02-14, 02:30:00,VALID,0,VALID,99.4598,VALID,0,VALID,18.6745,VALID,273,VALID,0,
2000-02-14, 02:31:00,VALID,0,VALID,99.4687,VALID,-0.0169808,VALID,18.678,VALID,273,VALID,0,
2000-02-14, 02:32:00,VALID,0,VALID,99.5145,VALID,-0.0169808,VALID,18.6974,VALID,272,VALID,0,
2000-02-14, 02:33:00,VALID,0,VALID,99.5196,VALID,-0.0339617,VALID,18.7197,VALID,207,VALID,0,
2000-02-14, 02:34:00,VALID,0,VALID,99.5158,VALID,-0.0339617,VALID,18.7264,VALID,101,VALID,0,
2000-02-14, 02:35:00,VALID,0,VALID,99.5183,VALID,-0.0169808,VALID,18.7262,VALID,119,VALID,0,
2000-02-14, 02:36:00,VALID,0,VALID,99.5043,VALID,0,VALID,18.7165,VALID,122,VALID,0,
2000-02-14, 02:37:01,VALID,0,VALID,99.4522,VALID,-0.0339617,VALID,18.6976,VALID,134,VALID,0,
2000-02-14, 02:38:00,VALID,0,VALID,99.3721,VALID,-0.0169808,VALID,18.6425,VALID,143,VALID,0,
2000-02-14, 02:39:00,VALID,0,VALID,99.3339,VALID,-0.0339617,VALID,18.5908,VALID,139,VALID,0.572218,
2000-02-14, 02:40:00,VALID,0,VALID,99.3543,VALID,-0.0169808,VALID,18.5615,VALID,135,VALID,0.915039,
2000-02-14, 02:41:00,VALID,0,VALID,99.3784,VALID,-0.0339617,VALID,18.5359,VALID,132,VALID,1.05976,
2000-02-14, 02:42:00,VALID,0,VALID,99.4077,VALID,-0.0339617,VALID,18.5361,VALID,133,VALID,0.866787,
2000-02-14, 02:43:00,VALID,0,VALID,99.4191,VALID,-0.0509425,VALID,18.5066,VALID,129,VALID,0.876234,
2000-02-14, 02:44:00,VALID,0,VALID,99.4293,VALID,-0.0849042,VALID,18.5144,VALID,120,VALID,0.86875,
2000-02-14, 02:45:00,VALID,0,VALID,99.414,VALID,-0.101885,VALID,18.4856,VALID,113,VALID,0.885851,
2000-02-14, 02:46:00,VALID,0,VALID,99.4153,VALID,-0.101885,VALID,18.4692,VALID,108,VALID,0.803125,
2000-02-14, 02:47:00,VALID,0,VALID,99.4306,VALID,-0.101885,VALID,18.4586,VALID,108,VALID,0.810547,
2000-02-14, 02:48:00,VALID,0,VALID,99.4547,VALID,-0.0679233,VALID,18.4715,VALID,102,VALID,0.730263,
2000-02-14, 02:49:00,VALID,0,VALID,99.4395,VALID,-0.0679233,VALID,18.4755,VALID,109,VALID,0.628806,
2000-02-14, 02:50:00,VALID,0,VALID,99.4446,VALID,-0.101885,VALID,18.4886,VALID,109,VALID,0.54367,
2000-02-14, 02:51:00,VALID,0,VALID,99.4509,VALID,-0.0849042,VALID,18.4851,VALID,101,VALID,0.0853516,
2000-02-14, 02:52:00,VALID,0,VALID,99.47,VALID,-0.101885,VALID,18.5045,VALID,95,VALID,0.196232,
2000-02-14, 02:53:00,VALID,0,VALID,99.5081,VALID,-0.0849042,VALID,18.5405,VALID,92,VALID,0.464844,
2000-02-14, 02:54:00,VALID,0,VALID,99.5069,VALID,-0.0849042,VALID,18.5629,VALID,92,VALID,0.376657,
2000-02-14, 02:55:00,VALID,0,VALID,99.484,VALID,-0.0849042,VALID,18.5686,VALID,96,VALID,0.0648226,
2000-02-14, 02:56:00,VALID,0,VALID,99.4713,VALID,-0.0679233,VALID,18.6049,VALID,99,VALID,0,
2000-02-14, 02:57:00,VALID,0,VALID,99.4585,VALID,-0.0679233,VALID,18.6143,VALID,99,VALID,0,
2000-02-14, 02:58:00,VALID,0,VALID,99.4166,VALID,-0.0849042,VALID,18.6109,VALID,99,VALID,0,
2000-02-14, 02:59:00,VALID,0,VALID,99.4357,VALID,-0.0169808,VALID,18.6293,VALID,74,VALID,0,
2000-02-14, 03:00:01,VALID,0,VALID,99.4077,VALID,0.0169808,VALID,18.6455,VALID,12,VALID,0,
2000-02-14, 03:01:00,VALID,0,VALID,99.4064,VALID,0.0339617,VALID,18.6512,VALID,66,VALID,0,
2000-02-14, 03:02:00,VALID,0,VALID,99.3632,VALID,0.0169808,VALID,18.6415,VALID,119,VALID,0,
2000-02-14, 03:03:00,VALID,0,VALID,99.3149,VALID,0.0169808,VALID,18.6256,VALID,119,VALID,0,
2000-02-14, 03:04:00,VALID,0,VALID,99.2971,VALID,0,VALID,18.6291,VALID,111,VALID,0,
2000-02-14, 03:05:00,VALID,0,VALID,99.2805,VALID,0,VALID,18.6157,VALID,108,VALID,0,
2000-02-14, 03:06:00,VALID,0,VALID,99.2678,VALID,0.0509425,VALID,18.6154,VALID,102,VALID,0.0314556,
2000-02-14, 03:07:00,VALID,0,VALID,99.2818,VALID,0.0169808,VALID,18.6219,VALID,94,VALID,0.450586,
2000-02-14, 03:08:00,VALID,0,VALID,99.2729,VALID,0.0509425,VALID,18.6256,VALID,98,VALID,0.35403,
2000-02-14, 03:09:00,VALID,0,VALID,99.3276,VALID,0.0339617,VALID,18.6748,VALID,103,VALID,0,
2000-02-14, 03:10:00,VALID,0,VALID,99.3721,VALID,0,VALID,18.7001,VALID,103,VALID,0,
2000-02-14, 03:11:01,VALID,0,VALID,99.3924,VALID,0.0339617,VALID,18.7359,VALID,103,VALID,0,
2000-02-14, 03:12:00,VALID,0,VALID,99.3581,VALID,0,VALID,18.7453,VALID,108,VALID,0,
2000-02-14, 03:13:00,VALID,0,VALID,99.3149,VALID,0.0169808,VALID,18.7257,VALID,214,VALID,0,
2000-02-14, 03:14:00,VALID,0.2,VALID,99.3034,VALID,-0.0509425,VALID,18.7396,VALID,270,VALID,0,
2000-02-14, 03:15:00,VALID,0,VALID,99.1953,VALID,-0.0849042,VALID,18.7177,VALID,260,VALID,0,
2000-02-14, 03:16:00,VALID,0,VALID,99.0898,VALID,-0.101885,VALID,18.6755,VALID,258,VALID,0.122656,
2000-02-14, 03:17:00,VALID,0,VALID,99.0237,VALID,-0.0679233,VALID,18.6501,VALID,250,VALID,0.597551,
2000-02-14, 03:18:00,VALID,0,VALID,98.9448,VALID,-0.0679233,VALID,18.627,VALID,229,VALID,0.696514,
2000-02-14, 03:19:00,VALID,0,VALID,98.9079,VALID,-0.0339617,VALID,18.6044,VALID,226,VALID,0.835526,
2000-02-14, 03:20:00,VALID,0,VALID,98.8685,VALID,-0.101885,VALID,18.5855,VALID,216,VALID,0.739258,
2000-02-14, 03:21:00,VALID,0,VALID,98.8889,VALID,-0.0849042,VALID,18.5497,VALID,211,VALID,0.687934,
2000-02-14, 03:22:01,VALID,0,VALID,98.9448,VALID,-0.101885,VALID,18.54,VALID,216,VALID,0.56875,
2000-02-14, 03:23:00,VALID,0,VALID,98.969,VALID,-0.101885,VALID,18.5368,VALID,218,VALID,0.250391,
2000-02-14, 03:24:00,VALID,0,VALID,99.0237,VALID,-0.101885,VALID,18.5209,VALID,229,VALID,0,
2000-02-14, 03:25:00,VALID,0,VALID,99.0453,VALID,-0.101885,VALID,18.5114,VALID,230,VALID,0,
2000-02-14, 03:26:00,VALID,0.2,VALID,99.0923,VALID,-0.118866,VALID,18.5013,VALID,236,VALID,0,
2000-02-14, 03:27:00,VALID,0,VALID,99.1597,VALID,-0.101885,VALID,18.514,VALID,252,VALID,0,
2000-02-14, 03:28:00,VALID,0,VALID,99.2373,VALID,-0.101885,VALID,18.55,VALID,260,VALID,0,
2000-02-14, 03:29:00,VALID,0,VALID,99.3034,VALID,0,VALID,18.5843,VALID,260,VALID,0,
2000-02-14, 03:30:00,VALID,0,VALID,99.3746,VALID,0.0169808,VALID,18.6452,VALID,260,VALID,0,
2000-02-14, 03:31:00,VALID,0,VALID,99.4191,VALID,0.0339617,VALID,18.693,VALID,300,VALID,0,
2000-02-14, 03:32:00,VALID,0,VALID,99.4446,VALID,0.0169808,VALID,18.749,VALID,303,VALID,0,
2000-02-14, 03:33:01,VALID,0,VALID,99.4395,VALID,0.0169808,VALID,18.765,VALID,303,VALID,0,
2000-02-14, 03:34:00,VALID,0,VALID,99.4471,VALID,0.0339617,VALID,18.761,VALID,303,VALID,0,
2000-02-14, 03:35:00,VALID,0.2,VALID,99.4547,VALID,0,VALID,18.8005,VALID,294,VALID,0,
2000-02-14, 03:36:00,VALID,0,VALID,99.4179,VALID,0.0169808,VALID,18.7933,VALID,281,VALID,0,
2000-02-14, 03:37:00,VALID,0,VALID,99.3746,VALID,0,VALID,18.7841,VALID,273,VALID,0,
2000-02-14, 03:38:00,VALID,0,VALID,99.3556,VALID,0,VALID,18.758,VALID,269,VALID,0,
2000-02-14, 03:39:00,VALID,0,VALID,99.3441,VALID,0.0169808,VALID,18.7486,VALID,250,VALID,0.0304276,
2000-02-14, 03:40:00,VALID,0,VALID,99.2843,VALID,0.0169808,VALID,18.7292,VALID,237,VALID,0.732279,
2000-02-14, 03:41:00,VALID,0,VALID,99.2042,VALID,0.0169808,VALID,18.687,VALID,243,VALID,0.97793,
2000-02-14, 03:42:00,VALID,0,VALID,99.2297,VALID,0.0339617,VALID,18.6611,VALID,235,VALID,0.554893,
2000-02-14, 03:43:00,VALID,0,VALID,99.1826,VALID,0.0169808,VALID,18.6418,VALID,223,VALID,0.552148,
2000-02-14, 03:44:01,VALID,0,VALID,99.1534,VALID,0,VALID,18.6132,VALID,201,VALID,0.95477,
2000-02-14, 03:45:00,VALID,0,VALID,99.2093,VALID,0.0169808,VALID,18.5998,VALID,165,VALID,1.24134,
2000-02-14, 03:46:00,VALID,0,VALID,99.2475,VALID,-0.0169808,VALID,18.6002,VALID,143,VALID,1.25421,
2000-02-14, 03:47:00,VALID,0,VALID,99.3009,VALID,-0.0169808,VALID,18.6231,VALID,131,VALID,1.29476,
2000-02-14, 03:48:00,VALID,0,VALID,99.3505,VALID,-0.0169808,VALID,18.6293,VALID,117,VALID,1.60567,
2000-02-14, 03:49:00,VALID,0,VALID,99.3479,VALID,-0.0169808,VALID,18.6556,VALID,124,VALID,1.78865,
2000-02-14, 03:50:00,VALID,0,VALID,99.3187,VALID,0,VALID,18.6228,VALID,110,VALID,1.7209,
2000-02-14, 03:51:00,VALID,0.2,VALID,99.3174,VALID,0,VALID,18.6035,VALID,102,VALID,1.75514,
2000-02-14, 03:52:00,VALID,0,VALID,99.3225,VALID,0,VALID,18.5873,VALID,113,VALID,1.49551,
2000-02-14, 03:53:00,VALID,0,VALID,99.3556,VALID,0,VALID,18.564,VALID,84,VALID,1.27724,
2000-02-14, 03:54:00,VALID,0,VALID,99.4217,VALID,0,VALID,18.5806,VALID,104,VALID,0.988181,
2000-02-14, 03:55:01,VALID,0.2,VALID,99.4001,VALID,0,VALID,18.5511,VALID,105,VALID,1.27529,
2000-02-14, 03:56:00,VALID,0,VALID,99.4662,VALID,0,VALID,18.5781,VALID,109,VALID,0.496289,
2000-02-14, 03:57:00,VALID,0,VALID,99.498,VALID,0,VALID,18.5774,VALID,103,VALID,0.294922,
2000-02-14, 03:58:00,VALID,0,VALID,99.512,VALID,0,VALID,18.5809,VALID,99,VALID,0.20293,
2000-02-14, 03:59:00,VALID,0,VALID,99.5399,VALID,0,VALID,18.5742,VALID,99,VALID,0,
2000-02-14, 04:00:00,VALID,0,VALID,99.5743,VALID,-0.0169808,VALID,18.5871,VALID,99,VALID,0,
2000-02-14, 04:01:00,VALID,0,VALID,99.5857,VALID,0.0169808,VALID,18.5901,VALID,97,VALID,0,
2000-02-14, 04:02:00,VALID,0,VALID,99.5997,VALID,0,VALID,18.6099,VALID,88,VALID,0,
2000-02-14, 04:03:00,VALID,0,VALID,99.6264,VALID,0,VALID,18.6323,VALID,90,VALID,0,
2000-02-14, 04:04:00,VALID,0,VALID,99.6302,VALID,0.0169808,VALID,18.6221,VALID,90,VALID,0,
2000-02-14, 04:05:00,VALID,0,VALID,99.6251,VALID,0.0169808,VALID,18.6355,VALID,92,VALID,0,
2000-02-14, 04:06:01,VALID,0,VALID,99.6353,VALID,-0.0339617,VALID,18.6325,VALID,102,VALID,0,
2000-02-14, 04:07:00,VALID,0,VALID,99.6671,VALID,0,VALID,18.6388,VALID,99,VALID,0,
2000-02-14, 04:08:00,VALID,0,VALID,99.6582,VALID,0,VALID,18.6482,VALID,66,VALID,0,
2000-02-14, 04:09:00,VALID,0,VALID,99.6913,VALID,0,VALID,18.6711,VALID,85,VALID,0,
2000-02-14, 04:10:00,VALID,0,VALID,99.7192,VALID,-0.0169808,VALID,18.717,VALID,78,VALID,0,